Location: Cañada de la Miga
(34.7595°N, 106.2317°W)
Time: 10:49:26
(UTC+00:00)

Transit 4A - Pass Details

Date: 13 December 2021
Orbit: 863 x 981 km, 66.8° (Epoch: 26 January)

Event Time Altitude Azimuth Distance (km) Brightness Sun altitude
Rises 00:37:43 0° 225° (SW) 3,444 12.3 -8.9°
Reaches altitude 10° 00:40:18 10° 232° (SW) 2,520 11.6 -9.4°
Maximum altitude 00:45:47 42° 302° (WNW) 1,258 8.9 -10.4°
Drops below altitude 10° 00:51:26 10° 13° (NNE) 2,598 9.9 -11.5°
Enters shadow 00:54:02 - 20° (NNE) 3,521 10.5 -12.0°
